Tracking 18796 objects as of 20-September-2017
HD Live streaming from Space Station
objects crossing your sky now

CZ-2D DEB

Track CZ-2D DEB now!
10-day predictions


NORAD ID: 35272
Int'l Code: 2005-024L
Perigee: 516.4 km
Apogee: 532.8 km
Inclination: 97.6 °
Period: 95.0 minutes
Semi major axis: 6895 km
RCS: 0.0215 m2 (small)
Launch date: July 5, 2005
Source: People's Republic of China (PRC)
Launch site: Jiuquan Satellite Launch Center, China (JSC)

Note: This is SATELLITE DEBRIS
aabbcc
Your satellite tracking list
Your tracking list is empty





NASA's NSSDC Master Catalog

Two Line Element Set (TLE):
1 35272U 05024L   17261.36708484  .00000734  00000-0  41554-4 0  9994
2 35272  97.5505 302.9443 0011859 250.8962 172.1082 15.16153358652038
Source of the keplerian elements: AFSPC